Voltar ao catálogo

STARLINK-35359

AtivoComunicaçõesSSO
NORAD 65670·PAYLOAD·🇺🇸 United States

Lançado Sep 19, 2025 de Vandenberg Space Force Base

Loading…

Próximas Passagens (próximas 24 horas)

TLE

AtualizadoSource: CelesTrak SupGP

Época: Sep 14, 2026, 23:03 UTC

1 65670C 25211U   26257.96090278  .00058767  00000+0  18246-2 0  2570
2 65670  97.2833 298.3250 0000927  90.8857  59.4638 15.33404110    10

Acompanhe STARLINK-35359 em tempo real com AllMySat

Download on the App Store